Wind_Speed
8 8 9 10 12 14 16 18 18 18 17 15 15 15 14 12 9 8 8 8 8 7 7 7 8 9 9 10 11 12 12 12 11 11 11 10 10 10 10 10 10 10 9 9 9 8 9 8 8
7 7 8 9 12 14 16 17 18 18 17 16 16 15 14 11 9 8 7 7 7 7 7 7 8 8 9 10 10 10 10 11 10 10 10 9 9 10 10 10 10 9 9 9 9 8 8 8 8
5 5 6 8 10 12 14 15 16 18 17 17 17 15 14 11 8 7 6 6 6 6 6 7 8 8 8 9 9 9 9 9 9 9 9 9 9 9 9 9 9 9 9 9 8 8 8 8 7
3 4 5 6 8 10 12 14 15 16 17 17 17 16 14 11 8 6 5 5 4 5 6 6 7 7 8 8 8 8 8 8 8 8 8 9 9 9 9 8 8 8 8 8 8 8 8 8 7
2 2 4 5 6 8 10 12 14 15 16 16 16 15 13 11 8 6 5 5 4 4 5 6 6 6 7 7 7 7 7 8 8 7 8 8 8 8 8 8 8 7 7 8 8 8 7 7 6
2 2 3 3 4 6 8 10 12 14 15 15 15 14 12 10 8 6 5 4 4 4 5 6 6 6 6 6 7 7 7 7 7 7 7 7 7 7 7 6 6 6 6 7 7 7 7 6 6
4 3 1 1 3 5 6 8 10 13 13 14 14 13 11 9 8 6 6 5 4 5 5 6 6 6 6 6 6 6 6 6 6 6 6 6 6 6 6 6 5 5 6 6 6 6 6 6 6
5 5 3 3 2 4 6 8 10 11 12 13 13 12 11 9 7 6 5 5 5 5 6 5 5 5 5 5 5 5 5 6 5 5 5 6 6 6 6 5 5 5 5 5 5 5 5 5 6
7 7 6 5 4 4 5 7 9 10 11 11 12 12 11 9 8 6 5 5 5 6 6 5 4 4 4 5 4 5 5 5 5 4 4 4 4 4 4 4 4 4 4 4 4 4 4 5 5
10 9 9 7 6 5 5 6 7 9 10 10 11 11 11 9 7 6 5 5 5 6 6 5 5 4 4 4 3 4 4 4 4 3 3 3 3 3 3 3 3 3 3 3 3 4 4 4 5
13 12 11 9 8 7 6 6 5 8 9 9 10 11 11 10 8 7 5 5 5 6 5 5 4 4 3 3 3 3 4 3 3 3 3 2 2 2 2 2 2 2 2 2 2 3 3 3 4
15 15 13 11 9 8 7 6 5 6 7 8 9 9 10 9 8 7 6 5 5 5 5 4 4 3 3 2 2 2 3 3 3 3 2 2 2 2 2 2 1 1 1 2 2 2 2 3 3
17 17 15 13 12 10 9 7 5 4 5 6 7 8 8 9 8 8 7 6 5 5 4 4 4 3 3 2 1 2 4 4 3 3 2 1 1 1 1 1 1 0 1 1 2 1 1 2 3
20 19 18 16 14 13 11 8 6 4 4 5 6 7 7 7 7 8 7 7 6 5 4 4 4 3 2 1 1 2 3 3 3 2 2 1 1 1 1 1 1 1 1 1 1 1 1 2 2
21 21 20 18 17 16 13 10 7 6 4 4 5 6 6 6 7 7 7 7 6 5 5 4 4 3 3 2 0 1 2 3 3 3 2 2 2 1 1 1 2 1 1 1 1 1 1 1 2
23 23 22 21 20 18 15 12 9 8 6 5 5 5 6 6 6 6 6 7 6 5 4 4 4 3 3 3 1 1 2 2 3 3 3 2 2 2 2 2 2 2 1 1 1 1 1 1 1
25 24 24 23 22 20 18 14 12 10 9 7 6 6 6 5 5 6 6 7 6 5 4 3 3 3 2 3 2 2 2 2 3 3 4 4 3 3 3 3 3 3 2 2 1 1 2 2 2
27 26 25 25 24 22 20 17 15 13 11 9 8 7 6 5 5 5 6 7 6 5 4 4 4 4 3 3 3 2 3 4 4 4 4 5 5 5 5 4 4 4 3 3 2 2 2 2 3
28 27 26 26 26 24 22 20 18 16 13 11 9 7 7 6 6 6 7 7 6 6 5 6 5 5 5 5 5 4 4 5 5 5 5 6 6 6 6 6 5 5 5 4 3 3 2 3 3
30 28 27 28 29 27 24 22 20 18 15 12 10 10 9 8 7 7 7 7 7 7 6 6 6 5 5 5 6 6 5 5 6 6 6 6 6 6 6 6 6 6 6 5 5 4 4 4 4
30 29 29 30 30 29 27 25 22 19 17 14 12 12 11 9 8 7 7 7 7 7 7 7 6 6 6 6 6 5 5 6 7 7 8 8 8 8 8 7 7 7 7 7 7 6 5 5 5
30 30 31 32 32 31 29 27 23 21 19 15 13 12 11 10 9 8 8 8 8 8 8 8 7 7 7 7 7 7 7 7 8 8 8 9 9 8 9 9 8 7 8 9 8 7 7 7 7
30 31 32 33 34 34 31 28 24 22 19 15 14 13 12 11 10 10 10 10 10 9 9 9 8 8 8 8 8 8 9 8 9 9 9 9 9 9 10 10 9 10 10 10 10 9 9 9 9
33 33 33 34 35 35 31 29 24 22 19 17 15 14 14 13 12 11 11 12 11 10 10 10 10 9 9 9 9 9 10 10 9 9 9 9 10 11 11 11 11 11 12 12 11 11 11 11 11
35 35 34 34 35 34 31 30 25 21 20 18 16 15 14 14 13 13 13 13 12 11 11 11 11 11 10 10 11 10 10 10 10 10 10 10 11 11 12 12 12 13 13 13 13 13 13 13 12
35 35 35 34 35 33 31 31 26 23 20 18 17 16 15 15 15 14 14 14 13 13 12 12 12 12 12 11 12 11 11 11 11 11 12 12 12 12 13 13 13 14 13 13 13 13 13 13 13
35 35 34 35 35 34 33 31 28 25 22 20 19 18 16 15 15 15 15 15 14 14 13 13 13 13 13 13 12 12 12 12 12 12 12 12 12 12 13 12 13 13 13 13 13 14 14 14 14
36 35 35 36 35 35 33 31 29 26 24 22 20 19 17 15 15 16 16 15 15 15 14 13 14 14 14 14 13 12 12 13 13 13 13 13 13 13 13 13 13 14 14 14 15 15 16 16 16
36 37 37 36 36 35 33 30 27 25 24 23 21 20 18 17 16 16 17 16 16 15 15 14 14 13 14 14 13 13 13 13 13 13 14 14 14 13 14 14 14 15 15 16 16 16 17 18 18
36 36 36 36 36 35 33 30 27 26 26 24 23 21 19 17 16 17 17 17 16 15 15 15 14 14 14 14 13 13 12 12 13 13 14 14 14 14 14 15 15 15 16 17 18 17 18 18 19
Wind_Direction
55 59 58 54 51 56 56 56 53 47 43 43 44 42 40 42 48 54 62 67 67 67 75 80 84 84 83 82 81 80 80 81 79 76 73 74 77 78 78 80 79 80 83 85 86 83 82 85 84
51 55 57 51 52 57 57 57 52 47 40 40 40 37 33 33 44 54 62 67 69 71 76 82 85 85 85 83 83 82 80 80 78 75 73 75 75 77 78 80 78 79 80 80 77 77 80 82 83
43 49 54 52 55 58 57 55 50 46 39 37 36 33 27 28 39 51 61 67 70 75 81 85 84 86 86 85 85 84 80 79 79 80 74 72 74 73 74 73 75 78 77 76 74 75 77 80 81
32 36 52 54 54 57 60 57 51 47 39 33 33 30 27 27 30 46 63 71 75 83 86 87 83 86 88 87 87 85 83 81 82 83 78 78 78 76 74 74 77 81 80 77 77 78 77 74 74
351 11 37 48 50 53 60 60 54 44 36 31 30 30 27 26 29 44 68 79 81 91 90 90 87 86 89 90 89 87 83 80 81 81 79 84 82 75 74 78 79 78 76 77 77 75 74 68 66
298 328 26 47 53 54 58 61 57 49 36 29 29 30 27 28 30 45 66 79 86 93 93 92 90 90 92 93 92 91 86 84 81 79 81 83 80 77 75 76 76 78 80 78 73 72 71 63 58
270 290 345 17 30 41 48 55 54 49 37 27 26 29 28 29 28 43 63 76 87 91 94 94 92 91 95 97 94 92 89 87 85 81 82 84 83 80 74 73 75 81 82 78 72 69 67 60 55
263 266 268 282 325 13 29 42 48 45 36 28 25 25 25 27 25 38 60 74 84 88 90 93 91 96 104 105 100 96 94 92 90 89 86 83 80 78 74 70 69 75 79 76 71 64 59 56 52
254 254 262 271 292 333 8 31 40 43 36 28 24 21 20 21 22 37 58 69 75 81 85 88 89 94 102 105 106 101 100 100 96 95 90 84 84 80 76 67 67 73 73 71 67 54 49 49 48
248 249 256 267 281 307 342 9 30 38 35 27 21 20 18 21 28 37 54 67 69 75 78 84 84 87 100 108 115 116 118 116 111 107 101 92 91 84 80 69 69 69 70 68 60 53 50 48 45
244 246 255 265 278 294 314 348 16 26 27 23 22 24 21 24 30 35 46 60 65 71 73 76 74 78 92 112 124 135 141 136 129 123 118 112 102 98 97 93 84 76 71 62 57 55 50 48 44
240 245 252 261 269 282 295 319 358 17 20 17 20 23 23 25 31 38 42 46 51 57 62 68 67 70 80 104 144 161 158 152 146 140 124 122 118 126 135 145 122 81 54 44 45 53 45 38 41
236 242 248 255 264 272 280 297 317 348 5 9 12 14 14 22 26 32 33 33 40 46 55 59 59 59 63 82 129 173 169 162 159 148 136 121 117 141 153 161 151 59 11 28 31 56 51 33 31
234 238 242 249 257 267 269 280 289 307 335 354 359 360 4 12 16 22 25 25 33 41 52 55 51 50 47 63 114 167 175 181 180 182 176 160 137 139 157 182 195 257 298 358 19 36 32 20 16
232 234 238 243 251 259 262 265 275 287 298 323 340 345 350 356 2 7 14 17 25 31 38 43 43 39 27 18 11 204 188 193 199 208 211 203 201 198 205 202 215 240 284 293 312 4 347 338 348
231 232 234 239 246 251 253 256 260 268 278 290 310 325 336 337 343 349 358 2 9 12 20 29 30 28 18 4 344 229 203 203 216 225 230 227 223 223 217 214 222 228 254 271 262 288 281 308 321
230 230 232 237 242 245 247 249 251 256 264 271 284 297 304 317 330 335 339 344 348 351 356 3 357 359 1 348 331 265 242 235 236 240 240 241 239 234 239 230 227 234 248 250 246 247 257 296 308
230 229 230 235 241 243 243 244 248 252 256 263 270 278 289 293 310 320 322 325 330 331 328 328 323 317 318 319 318 288 257 248 247 247 246 239 243 244 248 243 240 240 239 241 236 241 264 291 303
229 227 227 231 237 240 242 243 246 251 254 258 266 273 279 282 295 306 309 314 317 317 316 312 313 306 303 300 300 290 268 251 251 252 254 247 247 247 248 250 247 245 238 236 235 244 259 284 293
228 225 224 228 235 237 241 242 245 249 251 253 257 263 268 270 283 295 297 298 304 302 299 295 298 297 296 296 295 292 280 262 259 259 259 255 254 253 251 254 249 244 240 235 237 247 255 271 280
227 224 222 225 233 238 241 243 245 246 246 246 251 258 263 265 273 281 285 291 289 289 292 284 280 283 286 291 293 298 286 271 266 266 260 261 257 255 253 252 249 245 243 243 243 249 257 264 271
226 224 222 225 230 235 241 243 244 247 248 248 252 258 260 261 265 272 275 284 284 281 285 285 281 280 280 287 292 288 283 273 268 268 266 261 255 256 251 250 249 248 249 248 245 249 253 259 267
222 222 222 224 229 234 240 244 243 246 248 251 254 255 253 254 262 269 271 280 284 278 280 281 279 278 279 282 287 285 283 281 275 272 262 257 253 256 253 252 248 248 251 250 249 250 253 256 264
221 222 223 226 230 234 238 245 245 247 250 253 254 252 249 252 258 262 265 271 279 277 277 276 272 271 274 279 284 284 282 280 275 269 260 256 256 257 257 255 251 250 252 252 252 251 255 257 261
221 222 224 227 230 234 237 242 244 245 249 251 252 248 247 251 255 257 263 271 275 275 269 273 272 269 270 276 281 283 282 277 272 267 262 260 260 260 258 257 253 251 249 249 251 252 256 258 260
223 224 226 229 232 235 237 240 243 245 248 251 249 247 246 250 254 256 259 264 269 272 271 271 272 270 269 273 278 280 278 276 271 266 261 261 260 260 262 261 256 252 249 247 247 252 257 260 261
223 225 227 230 233 235 236 239 243 243 246 250 249 248 248 248 248 252 255 258 262 266 270 269 269 269 268 269 272 277 276 272 269 266 263 262 262 263 264 261 257 251 251 250 251 254 257 260 265
223 225 226 229 233 236 238 239 242 243 245 248 248 249 249 245 246 251 254 255 258 263 266 268 268 266 267 268 266 270 273 271 267 263 264 265 265 264 260 257 256 255 256 258 258 259 260 264 268
223 224 227 231 235 237 239 239 241 241 242 245 248 250 249 244 244 250 254 256 254 258 263 264 269 269 270 270 269 272 269 267 267 266 267 266 265 262 257 256 257 258 259 261 263 264 265 268 271
223 226 229 232 236 238 240 239 239 239 240 244 246 248 247 244 245 250 254 256 255 256 261 262 266 267 269 272 271 270 267 265 267 267 266 265 265 262 259 259 260 261 261 263 265 267 269 271 272
Height
5887 5887 5888 5889 5888 5886 5884 5883 5882 5881 5881 5880 5879 5878 5878 5879 5879 5881 5879 5877 5877 5878 5878 5878 5878 5878 5878 5879 5879 5880 5880 5880 5880 5881 5882 5883 5883 5884 5884 5885 5885 5885 5886 5886 5886 5886 5886 5887 5887
5888 5889 5890 5890 5889 5887 5886 5885 5884 5883 5883 5881 5880 5880 5879 5879 5879 5879 5878 5878 5879 5879 5879 5879 5879 5879 5880 5880 5881 5881 5882 5882 5882 5883 5883 5884 5885 5886 5886 5887 5887 5887 5887 5887 5888 5888 5888 5888 5888
5890 5890 5891 5891 5889 5889 5888 5887 5885 5885 5884 5883 5882 5881 5881 5881 5880 5880 5880 5880 5880 5880 5880 5880 5880 5880 5881 5881 5882 5883 5883 5884 5884 5884 5885 5886 5886 5887 5887 5888 5888 5888 5888 5889 5889 5889 5889 5889 5889
5891 5892 5892 5892 5891 5890 5889 5888 5887 5886 5886 5885 5884 5883 5882 5882 5882 5881 5881 5881 5881 5881 5881 5881 5881 5881 5882 5883 5883 5884 5884 5884 5885 5886 5886 5887 5888 5888 5888 5889 5889 5889 5890 5890 5890 5890 5890 5890 5890
5892 5892 5893 5892 5892 5891 5890 5889 5888 5888 5887 5886 5885 5884 5884 5884 5883 5882 5882 5882 5882 5882 5882 5882 5882 5882 5883 5884 5884 5884 5885 5886 5886 5887 5888 5888 5889 5889 5890 5890 5890 5891 5891 5891 5891 5891 5891 5891 5891
5892 5892 5893 5892 5892 5892 5892 5890 5890 5889 5888 5888 5887 5886 5885 5885 5884 5883 5883 5883 5883 5883 5883 5882 5883 5883 5884 5884 5885 5885 5886 5887 5887 5888 5889 5889 5890 5890 5891 5891 5891 5892 5892 5892 5892 5892 5892 5892 5892
5892 5892 5892 5892 5893 5893 5893 5892 5890 5889 5889 5889 5888 5887 5886 5886 5885 5885 5884 5884 5884 5883 5883 5883 5883 5884 5885 5885 5886 5886 5887 5888 5888 5889 5890 5890 5891 5891 5892 5892 5893 5893 5893 5893 5893 5893 5893 5893 5892
5891 5892 5892 5892 5893 5893 5893 5892 5891 5890 5890 5890 5889 5888 5888 5887 5886 5885 5885 5885 5884 5884 5884 5884 5884 5885 5885 5886 5886 5887 5887 5888 5889 5890 5890 5891 5892 5892 5893 5893 5893 5894 5894 5894 5894 5894 5894 5893 5893
5890 5892 5891 5892 5893 5893 5893 5893 5892 5891 5891 5891 5890 5890 5889 5887 5887 5886 5886 5886 5885 5885 5885 5885 5885 5885 5886 5886 5887 5888 5888 5889 5890 5890 5891 5892 5892 5893 5893 5894 5894 5894 5895 5895 5895 5895 5894 5894 5894
5889 5890 5891 5892 5892 5893 5893 5893 5893 5892 5892 5892 5891 5890 5889 5888 5888 5887 5887 5887 5886 5886 5886 5886 5886 5886 5886 5887 5887 5888 5889 5889 5890 5891 5892 5892 5893 5893 5894 5894 5895 5895 5895 5895 5895 5895 5895 5895 5895
5887 5889 5889 5891 5891 5892 5893 5893 5893 5893 5893 5893 5892 5891 5890 5889 5889 5888 5888 5888 5887 5887 5886 5886 5886 5887 5887 5887 5888 5888 5889 5889 5890 5891 5892 5892 5893 5893 5894 5894 5895 5895 5895 5896 5896 5896 5896 5896 5896
5886 5887 5888 5890 5891 5892 5892 5893 5893 5894 5895 5894 5893 5892 5892 5891 5890 5889 5889 5888 5888 5887 5887 5887 5887 5887 5887 5887 5888 5888 5889 5890 5890 5891 5892 5893 5893 5893 5894 5894 5895 5895 5896 5896 5896 5896 5896 5896 5896
5884 5885 5886 5888 5889 5891 5892 5892 5893 5894 5895 5894 5894 5893 5893 5892 5891 5891 5890 5889 5888 5888 5887 5887 5887 5887 5887 5888 5888 5888 5889 5890 5890 5891 5892 5893 5893 5893 5894 5894 5895 5895 5896 5896 5897 5897 5897 5897 5897
5882 5883 5885 5887 5888 5889 5891 5892 5893 5894 5895 5895 5895 5894 5894 5893 5892 5892 5891 5890 5889 5888 5888 5888 5888 5888 5888 5888 5888 5888 5889 5890 5890 5891 5892 5892 5893 5893 5894 5894 5895 5895 5896 5896 5896 5897 5897 5897 5897
5879 5881 5883 5885 5886 5888 5890 5891 5892 5893 5894 5894 5895 5895 5894 5894 5893 5892 5892 5891 5890 5889 5888 5888 5888 5888 5888 5888 5888 5889 5889 5889 5890 5891 5891 5892 5892 5893 5894 5894 5895 5895 5896 5896 5896 5897 5897 5897 5897
5876 5878 5880 5882 5884 5885 5889 5890 5891 5892 5893 5894 5894 5895 5894 5894 5893 5893 5892 5891 5890 5889 5889 5888 5888 5888 5888 5888 5888 5888 5889 5889 5890 5890 5891 5891 5892 5892 5893 5894 5894 5895 5895 5896 5896 5896 5897 5897 5897
5872 5875 5877 5879 5881 5883 5885 5887 5889 5890 5891 5893 5894 5894 5894 5893 5893 5892 5891 5890 5890 5889 5889 5889 5888 5888 5888 5888 5888 5888 5888 5889 5889 5890 5890 5891 5891 5892 5892 5893 5894 5894 5895 5896 5896 5896 5897 5897 5897
5868 5871 5874 5875 5877 5880 5882 5885 5886 5888 5889 5891 5892 5892 5892 5892 5892 5892 5891 5890 5889 5889 5889 5888 5888 5888 5888 5888 5887 5887 5888 5888 5888 5889 5889 5890 5890 5891 5892 5892 5893 5893 5894 5895 5895 5896 5896 5896 5896
5863 5867 5870 5872 5873 5876 5879 5881 5883 5885 5887 5888 5890 5891 5891 5891 5891 5890 5890 5890 5889 5888 5888 5888 5888 5887 5887 5887 5887 5887 5887 5887 5888 5888 5889 5889 5889 5890 5890 5891 5892 5893 5893 5894 5895 5895 5895 5896 5896
5858 5863 5866 5868 5869 5872 5875 5878 5880 5882 5885 5886 5888 5888 5889 5889 5889 5889 5888 5888 5888 5888 5887 5887 5887 5887 5887 5887 5886 5886 5886 5887 5887 5887 5887 5888 5888 5889 5889 5890 5891 5891 5892 5893 5894 5894 5895 5895 5895
5853 5858 5862 5864 5865 5868 5872 5874 5877 5880 5882 5884 5885 5886 5887 5887 5887 5887 5886 5886 5886 5886 5886 5886 5886 5886 5886 5886 5886 5886 5886 5886 5886 5886 5886 5886 5886 5887 5888 5888 5889 5890 5890 5891 5892 5893 5894 5894 5894
5849 5853 5856 5859 5861 5863 5867 5870 5874 5876 5878 5881 5882 5883 5884 5885 5885 5885 5885 5884 5884 5885 5885 5885 5885 5885 5885 5885 5885 5885 5885 5884 5884 5884 5884 5885 5885 5885 5886 5887 5887 5888 5889 5889 5890 5891 5892 5892 5893
5844 5847 5851 5854 5856 5859 5862 5866 5871 5872 5875 5878 5880 5880 5881 5882 5882 5882 5882 5882 5882 5882 5883 5883 5883 5884 5884 5884 5884 5883 5883 5883 5883 5883 5882 5883 5883 5884 5884 5885 5885 5886 5887 5887 5888 5889 5890 5890 5891
5837 5841 5845 5848 5851 5854 5859 5862 5866 5869 5872 5875 5876 5877 5878 5879 5880 5880 5880 5880 5880 5880 5880 5881 5881 5881 5882 5882 5882 5881 5881 5881 5881 5880 5881 5881 5881 5882 5882 5882 5883 5884 5884 5885 5886 5887 5887 5888 5888
5831 5836 5840 5843 5845 5850 5855 5857 5862 5866 5868 5871 5872 5873 5874 5876 5876 5877 5877 5878 5877 5878 5877 5878 5878 5879 5879 5879 5879 5879 5879 5879 5878 5878 5879 5879 5879 5879 5880 5880 5880 5881 5882 5883 5883 5884 5885 5885 5886
5826 5831 5836 5839 5842 5847 5850 5852 5858 5862 5864 5866 5868 5870 5871 5872 5873 5874 5875 5875 5875 5875 5875 5875 5876 5876 5876 5876 5876 5876 5876 5876 5876 5876 5876 5877 5877 5877 5877 5877 5877 5877 5878 5879 5881 5881 5882 5883 5883
5821 5825 5831 5834 5837 5841 5845 5849 5854 5857 5860 5862 5864 5866 5867 5869 5870 5871 5871 5872 5872 5872 5872 5872 5872 5873 5873 5873 5873 5873 5873 5873 5873 5873 5873 5874 5874 5874 5874 5874 5874 5874 5876 5877 5878 5878 5879 5879 5880
5816 5820 5824 5828 5831 5835 5840 5845 5849 5853 5856 5858 5860 5862 5864 5865 5867 5867 5868 5868 5868 5869 5869 5868 5869 5869 5869 5870 5869 5870 5870 5870 5870 5870 5871 5871 5871 5871 5872 5872 5872 5873 5873 5874 5875 5875 5875 5876 5876
5810 5814 5818 5823 5827 5831 5835 5842 5845 5849 5851 5854 5856 5858 5860 5862 5863 5863 5864 5864 5864 5865 5865 5865 5865 5866 5866 5865 5865 5866 5866 5866 5867 5867 5868 5868 5868 5869 5869 5869 5870 5870 5870 5871 5871 5871 5872 5872 5872
5804 5809 5813 5818 5822 5826 5830 5839 5840 5844 5847 5849 5852 5854 5856 5858 5859 5859 5860 5860 5860 5861 5862 5862 5862 5862 5862 5862 5862 5862 5862 5863 5863 5864 5864 5865 5865 5865 5866 5866 5867 5867 5867 5867 5867 5867 5868 5868 5868